EN

Hourly Weather Ladysmith

Today, 4 August, Wednesday

Time Temperature Precipitation Wind Pressure Humidity
00:00 +17°C° 0 mm 2 mps 731 mmHg 63%
01:00 +16°C° 0 mm 1 mps 732 mmHg 63%
02:00 +16°C° 0 mm 1 mps 732 mmHg 63%
03:00 +16°C° 0 mm 1 mps 732 mmHg 64%
04:00 +15°C° 0 mm 1 mps 732 mmHg 65%
05:00 +18°C° 0 mm 1 mps 732 mmHg 64%
06:00 +19°C° 0 mm 1 mps 732 mmHg 63%
07:00 +20°C° 0 mm 1 mps 732 mmHg 62%
08:00 +22°C° 0 mm 1 mps 732 mmHg 58%
09:00 +23°C° 0 mm 1 mps 732 mmHg 53%
10:00 +25°C° 0 mm 1 mps 732 mmHg 48%
11:00 +26°C° 0 mm 1 mps 732 mmHg 45%
12:00 +27°C° 0 mm 1 mps 732 mmHg 42%
13:00 +29°C° 0 mm 1 mps 732 mmHg 39%
14:00 +29°C° 0 mm 1 mps 731 mmHg 39%
15:00 +28°C° 0 mm 1 mps 731 mmHg 40%
16:00 +28°C° 0 mm 1 mps 730 mmHg 40%
17:00 +27°C° 0 mm 1 mps 730 mmHg 47%
18:00 +25°C° 0 mm 1 mps 730 mmHg 54%
19:00 +24°C° 0 mm 1 mps 729 mmHg 61%
20:00 +22°C° 0 mm 1 mps 729 mmHg 65%
21:00 +21°C° 0 mm 1 mps 729 mmHg 70%
22:00 +20°C° 0 mm 1 mps 729 mmHg 74%
23:00 +19°C° 0 mm 1 mps 729 mmHg 76%

Tomorrow, 5 August, Thursday

Time Temperature Precipitation Wind Pressure Humidity
00:00 +19°C° 0 mm 1 mps 729 mmHg 78%
01:00 +18°C° 0 mm 1 mps 729 mmHg 80%
02:00 +18°C° 0 mm 1 mps 729 mmHg 81%
03:00 +16°C° 0 mm 1 mps 729 mmHg 82%
04:00 +16°C° 0 mm 1 mps 729 mmHg 83%
05:00 +18°C° 0 mm 1 mps 729 mmHg 77%
06:00 +19°C° 0 mm 1 mps 730 mmHg 72%
07:00 +20°C° 0 mm 1 mps 730 mmHg 67%
08:00 +21°C° 0 mm 2 mps 730 mmHg 60%
09:00 +24°C° 0 mm 2 mps 730 mmHg 53%
10:00 +26°C° 0 mm 2 mps 730 mmHg 46%
11:00 +26°C° 0 mm 2 mps 730 mmHg 44%
12:00 +27°C° 0 mm 2 mps 730 mmHg 43%
13:00 +28°C° 0 mm 2 mps 730 mmHg 41%
14:00 +27°C° 0 mm 2 mps 730 mmHg 43%
15:00 +27°C° 0 mm 2 mps 729 mmHg 44%
16:00 +27°C° 0 mm 2 mps 729 mmHg 46%
17:00 +25°C° 0 mm 2 mps 729 mmHg 56%
18:00 +23°C° 0 mm 1 mps 729 mmHg 65%
19:00 +21°C° 0 mm 1 mps 729 mmHg 74%
20:00 +20°C° 0 mm 1 mps 730 mmHg 79%
21:00 +18°C° 0 mm 2 mps 730 mmHg 85%
22:00 +17°C° 0 mm 2 mps 730 mmHg 90%
23:00 +17°C° 0 mm 2 mps 730 mmHg 91%

Day after tomorrow, 6 August, Friday

Time Temperature Precipitation Wind Pressure Humidity
00:00 +18°C° 0 mm 1 mps 731 mmHg 92%
01:00 +18°C° 0 mm 1 mps 731 mmHg 92%
02:00 +16°C° 0 mm 1 mps 731 mmHg 93%
03:00 +16°C° 0 mm 1 mps 731 mmHg 94%
04:00 +16°C° 0 mm 1 mps 731 mmHg 94%
05:00 +16°C° 0 mm 1 mps 731 mmHg 90%
06:00 +16°C° 0 mm 1 mps 731 mmHg 85%
07:00 +18°C° 0 mm 1 mps 732 mmHg 80%
08:00 +20°C° 0 mm 1 mps 732 mmHg 69%
09:00 +21°C° 0 mm 1 mps 732 mmHg 58%
10:00 +23°C° 0 mm 1 mps 732 mmHg 47%
11:00 +23°C° 0 mm 2 mps 732 mmHg 46%
12:00 +24°C° 0 mm 3 mps 732 mmHg 45%
13:00 +24°C° 0 mm 3 mps 732 mmHg 44%
14:00 +24°C° 0 mm 3 mps 732 mmHg 44%
15:00 +23°C° 0 mm 2 mps 732 mmHg 44%
16:00 +23°C° 0 mm 2 mps 732 mmHg 43%
17:00 +20°C° 0 mm 2 mps 732 mmHg 51%
18:00 +19°C° 0 mm 2 mps 731 mmHg 58%
19:00 +17°C° 0 mm 2 mps 731 mmHg 66%
20:00 +17°C° 0 mm 2 mps 731 mmHg 69%
21:00 +16°C° 0 mm 2 mps 731 mmHg 72%
22:00 +15°C° 0 mm 1 mps 731 mmHg 75%
23:00 +15°C° 0 mm 1 mps 731 mmHg 75%

7 August, Saturday

Time Temperature Precipitation Wind Pressure Humidity
00:00 +14°C° 0 mm 1 mps 731 mmHg 76%
01:00 +14°C° 0 mm 1 mps 731 mmHg 76%
02:00 +14°C° 0 mm 1 mps 731 mmHg 77%
03:00 +14°C° 0 mm 1 mps 730 mmHg 79%
04:00 +14°C° 0 mm 1 mps 730 mmHg 80%
05:00 +15°C° 0 mm 2 mps 730 mmHg 81%
06:00 +15°C° 0 mm 2 mps 730 mmHg 81%
07:00 +15°C° 0 mm 2 mps 730 mmHg 82%
08:00 +14°C° 0 mm 3 mps 730 mmHg 82%
09:00 +16°C° 0 mm 3 mps 730 mmHg 83%
10:00 +16°C° 0 mm 3 mps 730 mmHg 83%
11:00 +16°C° 0.1 mm 2 mps 730 mmHg 84%
12:00 +16°C° 0.1 mm 2 mps 730 mmHg 86%
13:00 +16°C° 0.1 mm 2 mps 730 mmHg 87%
14:00 +16°C° 0 mm 2 mps 729 mmHg 85%
15:00 +17°C° 0 mm 2 mps 729 mmHg 83%
16:00 +17°C° 0 mm 2 mps 729 mmHg 81%
17:00 +17°C° 0 mm 2 mps 729 mmHg 83%
18:00 +16°C° 0 mm 1 mps 729 mmHg 84%
19:00 +16°C° 0 mm 1 mps 729 mmHg 86%
20:00 +15°C° 0 mm 1 mps 729 mmHg 89%
21:00 +14°C° 0 mm 2 mps 729 mmHg 91%
22:00 +13°C° 0 mm 2 mps 729 mmHg 94%
23:00 +13°C° 0 mm 2 mps 729 mmHg 94%

8 August, Sunday

Time Temperature Precipitation Wind Pressure Humidity
00:00 +13°C° 0 mm 2 mps 729 mmHg 94%
01:00 +12°C° 0 mm 2 mps 730 mmHg 95%
02:00 +12°C° 0 mm 2 mps 730 mmHg 94%
03:00 +12°C° 0 mm 2 mps 730 mmHg 93%
04:00 +13°C° 0 mm 2 mps 730 mmHg 93%
05:00 +13°C° 0 mm 1 mps 730 mmHg 89%
06:00 +14°C° 0 mm 1 mps 731 mmHg 85%
07:00 +15°C° 0 mm 1 mps 731 mmHg 82%
08:00 +16°C° 0 mm 1 mps 731 mmHg 73%
09:00 +18°C° 0 mm 2 mps 732 mmHg 65%
10:00 +19°C° 0 mm 2 mps 732 mmHg 57%
11:00 +20°C° 0 mm 2 mps 732 mmHg 55%
12:00 +21°C° 0 mm 2 mps 732 mmHg 53%
13:00 +21°C° 0 mm 2 mps 732 mmHg 51%
14:00 +21°C° 0 mm 2 mps 732 mmHg 50%
15:00 +23°C° 0 mm 2 mps 732 mmHg 49%
16:00 +23°C° 0 mm 1 mps 732 mmHg 48%
17:00 +21°C° 0 mm 1 mps 732 mmHg 55%
18:00 +20°C° 0 mm 1 mps 731 mmHg 62%
19:00 +19°C° 0 mm 1 mps 731 mmHg 68%
20:00 +18°C° 0 mm 1 mps 732 mmHg 73%
21:00 +15°C° 0 mm 1 mps 732 mmHg 77%
22:00 +14°C° 0 mm 1 mps 732 mmHg 82%
23:00 +14°C° 0 mm 1 mps 732 mmHg 83%

9 August, Monday

Time Temperature Precipitation Wind Pressure Humidity
00:00 +14°C° 0 mm 1 mps 732 mmHg 85%
01:00 +13°C° 0 mm 1 mps 732 mmHg 86%
02:00 +13°C° 0 mm 1 mps 732 mmHg 86%
03:00 +13°C° 0 mm 1 mps 732 mmHg 86%
04:00 +12°C° 0 mm 2 mps 733 mmHg 86%
05:00 +14°C° 0 mm 2 mps 733 mmHg 80%
06:00 +15°C° 0 mm 2 mps 733 mmHg 74%
07:00 +16°C° 0 mm 2 mps 733 mmHg 68%
08:00 +18°C° 0 mm 2 mps 733 mmHg 62%
09:00 +20°C° 0 mm 2 mps 733 mmHg 56%
10:00 +23°C° 0 mm 2 mps 733 mmHg 49%
11:00 +24°C° 0 mm 2 mps 733 mmHg 48%
12:00 +24°C° 0 mm 2 mps 733 mmHg 46%
13:00 +25°C° 0 mm 2 mps 733 mmHg 45%
14:00 +25°C° 0 mm 2 mps 732 mmHg 45%
15:00 +25°C° 0 mm 2 mps 732 mmHg 45%
16:00 +25°C° 0 mm 1 mps 732 mmHg 45%
17:00 +24°C° 0 mm 1 mps 732 mmHg 52%
18:00 +22°C° 0 mm 1 mps 732 mmHg 58%
19:00 +19°C° 0 mm 0 mps 731 mmHg 65%
20:00 +20°C° 0 mm 1 mps 732 mmHg 68%
21:00 +19°C° 0 mm 1 mps 732 mmHg 71%
22:00 +16°C° 0 mm 1 mps 732 mmHg 74%
23:00 +16°C° 0 mm 1 mps 732 mmHg 75%
Show more